Terug naar catalogus

ONEWEB-0556

ActiefCommunicatiePO
NORAD 55798·PAYLOAD·🇬🇧 United Kingdom

Gelanceerd Mar 9, 2023 vanaf Cape Canaveral Space Force Station

Loading…

Volgende Passages (komende 24 uur)

TLE

VersSource: CelesTrak SupGP

Epoch: Sep 14, 2026, 17:28 UTC

1 55798C 23029C   26257.72829120 -.00000435  00000+0 -10722-2 0  2577
2 55798  87.9125 256.5985 0002889  90.2176  19.7887 13.20769447    14

Volg ONEWEB-0556 in realtime met AllMySat

Download on the App Store